User: anonymous   Login
Location: ??
(35.4032°N, 139.3073°E)
Time: 06:18:43
(UTC+00:00)
Language:

NOAA 11 - Orbit

View from above orbital plane
View from above orbital plane
View from above satellite
View from above satellite

Ground track
Ground track

The orbit data is extracted from the following two-line orbital elements,

1 19531U 88089A   24164.90499682  .00000126  00000-0  85608-4 0  9996
2 19531  98.5178 127.6590 0010005 244.9695 115.0441 14.15540789843582
Epoch (UTC): 12 June 2024 21:43:11
Eccentricity: 0.0010005
inclination: 98.5178°
perigee height: 833 km
apogee height: 847 km
right ascension of ascending node: 127.6590°
argument of perigee: 244.9695°
revolutions per day: 14.15540789
mean anomaly at epoch: 115.0441°
orbit number at epoch: 84358

The dashed part of the orbit path shows where the satellite is in the earth's shadow,  

DLR